Location: Davayat
(45.9471°N, 3.1105°E)
Time: 17:01:42
(UTC+00:00)

Cosmos 1821 Rocket - Pass Details

Date: 01 December 2020
Orbit: 946 x 1004 km, 82.9° (Epoch: 17 January)

Event Time Altitude Azimuth Distance (km) Brightness Sun altitude
Rises 17:29:13 0° 355° (N) 3,674 6.9 -14.3°
Reaches altitude 10° 17:31:50 10° 2° (N) 2,731 6.2 -14.7°
Maximum altitude 17:37:52 47° 75° (ENE) 1,276 4.2 -15.8°
Drops below altitude 10° 17:43:56 10° 149° (SSE) 2,751 6.2 -16.8°
Sets 17:46:34 0° 155° (SSE) 3,702 6.9 -17.2°
